Location: Nickerson Gardens
(33.9320°N, 118.2484°W)
Time: 23:54:38
(UTC+00:00)

Envisat - Pass Details

Date: 27 January 2021
Orbit: 764 x 766 km, 98.1° (Epoch: 06 March)

Event Time Altitude Azimuth Distance (km) Brightness Sun altitude
Rises 13:23:25 0° 15° (NNE) 3,236 6.3 -18.7°
Reaches altitude 10° 13:25:45 10° 18° (NNE) 2,306 5.6 -18.2°
Maximum altitude 13:30:48 69° 101° (E) 817 3.3 -17.2°
Drops below altitude 10° 13:35:50 10° 185° (S) 2,291 5.5 -16.1°
Sets 13:38:09 0° 188° (S) 3,213 6.3 -15.7°
